Language: 


Des rapports , des résumés tant et plus, au choix de chacun....


Données Historiques de Météogheer
Journalier Rapport pour Janvier 18, 2018 Unitée:  Métrique    Impériale   Les deux
Suivant Jour »
Journalier Hebdomadaire Mensuel Annuel Sur mesure
  Max: Min: Moyenne:
Température: 11.8 °C 0.0 °C 7.9 °C
Point de rosée: 10.0 °C 1.0 °C 4.7 °C
Humidité: 98% 0% 79%
Vent: 66.9km/h 0.0km/h 20.4km/h
Rafales: 91.4km/h - -
Vent- - WSW
Pression: 1007.0 hPa 0.0 hPa -
Pluie: 0.0 mm    
Historical Graphs
 
 
Données tabulaires pour Janvier 18, 2018
Heure Température Point de rosée Pression Vent Vent Rafales Humidité Pluie Taux (Horaire) Conditions
00:04 6.2 °C 3.0 °C 1007.0 hPa WSW 13.7 km/h 23.0 km/h 81% 0.0 mm
00:09 6.2 °C 3.0 °C 1007.0 hPa SSW 17.7 km/h 17.7 km/h 81% 0.0 mm
00:14 6.3 °C 3.0 °C 1007.0 hPa SSW 17.2 km/h 17.7 km/h 81% 0.0 mm
00:19 6.3 °C 4.0 °C 1007.0 hPa SW 15.8 km/h 19.1 km/h 82% 0.0 mm
00:24 6.3 °C 4.0 °C 1007.0 hPa WSW 16.3 km/h 24.8 km/h 82% 0.0 mm
00:29 6.3 °C 4.0 °C 1006.0 hPa WSW 14.0 km/h 24.8 km/h 82% 0.0 mm
00:34 6.3 °C 4.0 °C 1006.0 hPa WSW 14.0 km/h 24.8 km/h 82% 0.0 mm
00:39 6.3 °C 4.0 °C 1006.0 hPa SW 15.8 km/h 17.2 km/h 82% 0.0 mm
00:44 6.3 °C 4.0 °C 1005.0 hPa SSW 12.2 km/h 17.2 km/h 82% 0.0 mm
00:49 6.3 °C 4.0 °C 1005.0 hPa SSW 13.7 km/h 16.6 km/h 82% 0.3 mm
00:54 6.3 °C 4.0 °C 1005.0 hPa SSW 10.5 km/h 16.3 km/h 82% 0.3 mm
00:59 6.3 °C 4.0 °C 1003.9 hPa WSW 11.6 km/h 16.6 km/h 82% 0.3 mm
01:04 6.3 °C 4.0 °C 1003.9 hPa SSW 11.6 km/h 16.6 km/h 82% 0.5 mm
01:09 6.3 °C 4.0 °C 1003.9 hPa SSW 9.3 km/h 16.3 km/h 82% 0.5 mm
01:14 6.3 °C 4.0 °C 1005.0 hPa SSW 12.2 km/h 16.6 km/h 82% 0.5 mm
01:19 6.3 °C 4.0 °C 1005.0 hPa SSW 6.4 km/h 17.7 km/h 82% 0.5 mm
01:24 6.3 °C 4.0 °C 1005.0 hPa SW 13.7 km/h 19.1 km/h 82% 0.5 mm
01:29 6.3 °C 4.0 °C 1002.9 hPa SW 9.7 km/h 19.1 km/h 82% 0.5 mm
01:35 6.3 °C 4.0 °C 1002.9 hPa SSW 16.3 km/h 19.5 km/h 82% 0.5 mm
01:40 6.3 °C 4.0 °C 1002.9 hPa SW 17.2 km/h 23.3 km/h 82% 0.5 mm
01:45 5.6 °C 6.0 °C 1002.9 hPa South 19.5 km/h 27.7 km/h 98% 0.3 mm
01:50 5.6 °C 6.0 °C 1002.9 hPa SSW 15.8 km/h 27.7 km/h 98% 0.5 mm
01:55 5.6 °C 6.0 °C 1002.9 hPa SSW 19.5 km/h 26.2 km/h 98% 0.5 mm
02:00 5.7 °C 6.0 °C 1001.9 hPa SW 23.8 km/h 30.6 km/h 98% 0.5 mm
02:05 5.7 °C 6.0 °C 1001.9 hPa SSW 21.2 km/h 30.6 km/h 98% 0.5 mm
02:10 5.7 °C 6.0 °C 1001.9 hPa SSW 19.5 km/h 33.5 km/h 98% 0.8 mm
02:15 5.7 °C 6.0 °C 999.9 hPa SSW 25.3 km/h 33.5 km/h 98% 1.3 mm
02:20 5.7 °C 6.0 °C 999.9 hPa SSW 24.5 km/h 28.5 km/h 98% 1.3 mm
02:25 5.7 °C 6.0 °C 999.9 hPa WSW 20.6 km/h 31.4 km/h 98% 1.5 mm
02:30 5.7 °C 6.0 °C 1000.9 hPa SSW 17.7 km/h 31.4 km/h 98% 1.8 mm
02:35 5.7 °C 6.0 °C 1000.9 hPa WSW 17.2 km/h 31.7 km/h 98% 2.3 mm
02:40 5.7 °C 6.0 °C 1000.9 hPa SSW 26.7 km/h 32.3 km/h 98% 2.3 mm
02:45 5.7 °C 6.0 °C 998.9 hPa SW 17.2 km/h 32.3 km/h 98% 2.3 mm
02:50 5.8 °C 6.0 °C 998.9 hPa SW 25.3 km/h 27.7 km/h 98% 2.3 mm
02:55 5.8 °C 6.0 °C 998.9 hPa SSW 17.2 km/h 27.7 km/h 98% 2.3 mm
03:00 5.8 °C 6.0 °C 998.9 hPa SSW 24.5 km/h 27.7 km/h 98% 1.8 mm
03:05 5.8 °C 6.0 °C 998.9 hPa SSW 28.8 km/h 31.4 km/h 98% 1.8 mm
03:10 5.8 °C 6.0 °C 998.9 hPa WSW 17.7 km/h 31.4 km/h 98% 1.5 mm
03:15 5.9 °C 6.0 °C 997.9 hPa SSW 12.6 km/h 26.7 km/h 98% 1.3 mm
03:20 5.8 °C 6.0 °C 997.9 hPa SW 20.9 km/h 24.5 km/h 98% 0.8 mm
03:25 6.0 °C 6.0 °C 997.9 hPa SW 23.3 km/h 28.5 km/h 98% 0.5 mm
03:30 6.0 °C 6.0 °C 996.8 hPa SSW 21.6 km/h 28.8 km/h 98% 0.5 mm
03:35 6.1 °C 6.0 °C 996.8 hPa WSW 19.8 km/h 28.8 km/h 98% 0.3 mm
03:40 6.1 °C 6.0 °C 996.8 hPa South 12.6 km/h 28.5 km/h 98% 0.3 mm
03:45 6.3 °C 6.0 °C 996.8 hPa SW 16.3 km/h 31.4 km/h 98% 0.3 mm
03:50 6.3 °C 6.0 °C 996.8 hPa SW 28.0 km/h 31.4 km/h 98% 0.0 mm
03:55 6.5 °C 7.0 °C 996.8 hPa SW 20.1 km/h 32.0 km/h 98% 0.0 mm
04:00 6.5 °C 7.0 °C 996.8 hPa SW 21.2 km/h 32.0 km/h 98% 0.0 mm
04:05 6.7 °C 7.0 °C 996.8 hPa SSW 21.2 km/h 37.0 km/h 98% 0.0 mm
04:10 6.8 °C 7.0 °C 996.8 hPa WSW 20.9 km/h 37.0 km/h 98% 0.0 mm
04:15 7.0 °C 7.0 °C 996.2 hPa WSW 28.5 km/h 30.2 km/h 98% 0.0 mm
04:21 7.1 °C 7.0 °C 996.2 hPa WSW 24.5 km/h 32.0 km/h 98% 0.0 mm
04:26 7.2 °C 7.0 °C 996.2 hPa WSW 20.1 km/h 32.0 km/h 98% 0.0 mm
04:31 7.4 °C 7.0 °C 996.2 hPa WSW 24.5 km/h 37.8 km/h 98% 0.0 mm
04:36 7.5 °C 8.0 °C 996.2 hPa WSW 25.6 km/h 37.8 km/h 98% 0.0 mm
04:41 7.9 °C 8.0 °C 995.1 hPa SW 28.0 km/h 38.1 km/h 98% 0.3 mm
04:46 8.0 °C 8.0 °C 995.1 hPa WSW 36.4 km/h 43.6 km/h 98% 0.3 mm
04:51 8.2 °C 8.0 °C 995.1 hPa WSW 24.8 km/h 43.6 km/h 98% 0.3 mm
04:56 8.5 °C 9.0 °C 994.1 hPa WSW 36.0 km/h 43.9 km/h 98% 0.3 mm
05:01 8.6 °C 9.0 °C 994.1 hPa WSW 37.5 km/h 44.2 km/h 98% 0.3 mm
05:06 8.7 °C 9.0 °C 994.1 hPa West 30.9 km/h 50.0 km/h 98% 0.3 mm
05:11 8.9 °C 9.0 °C 994.1 hPa West 50.0 km/h 52.6 km/h 98% 0.3 mm
05:16 8.9 °C 9.0 °C 994.1 hPa WSW 50.4 km/h 52.6 km/h 98% 0.3 mm
05:21 8.9 °C 9.0 °C 994.1 hPa WSW 48.6 km/h 64.8 km/h 98% 0.3 mm
05:26 9.4 °C 9.0 °C 993.1 hPa WSW 41.4 km/h 64.8 km/h 98% 0.3 mm
05:31 9.4 °C 9.0 °C 993.1 hPa WSW 50.0 km/h 55.0 km/h 98% 0.3 mm
05:36 9.6 °C 10.0 °C 993.1 hPa WSW 42.2 km/h 72.4 km/h 98% 0.0 mm
05:41 9.6 °C 10.0 °C 993.1 hPa WSW 59.4 km/h 72.4 km/h 98% 0.0 mm
05:46 9.6 °C 10.0 °C 993.1 hPa WSW 41.0 km/h 59.7 km/h 98% 0.0 mm
05:51 9.6 °C 10.0 °C 993.1 hPa WSW 36.4 km/h 64.0 km/h 98% 0.0 mm
05:56 9.6 °C 10.0 °C 993.1 hPa WSW 44.6 km/h 64.0 km/h 98% 0.0 mm
06:01 9.6 °C 10.0 °C 993.1 hPa WSW 40.4 km/h 53.3 km/h 98% 0.0 mm
06:06 9.6 °C 10.0 °C 993.1 hPa WSW 52.6 km/h 52.6 km/h 98% 0.0 mm
06:11 9.6 °C 10.0 °C 992.1 hPa West 51.8 km/h 57.6 km/h 98% 0.0 mm
06:16 9.6 °C 10.0 °C 992.1 hPa WSW 36.7 km/h 60.5 km/h 98% 0.0 mm
06:21 9.6 °C 10.0 °C 992.1 hPa West 47.9 km/h 60.5 km/h 98% 0.0 mm
06:26 9.6 °C 10.0 °C 993.1 hPa West 43.1 km/h 54.7 km/h 98% 0.0 mm
06:32 9.6 °C 10.0 °C 993.1 hPa West 49.2 km/h 56.5 km/h 98% 0.0 mm
06:37 9.6 °C 10.0 °C 993.1 hPa West 59.7 km/h 59.7 km/h 98% 0.0 mm
06:42 11.1 °C 10.0 °C 992.1 hPa WSW 48.9 km/h 59.7 km/h 91% 0.0 mm
06:47 11.1 °C 10.0 °C 992.1 hPa WSW 52.6 km/h 66.3 km/h 91% 0.0 mm
06:52 11.1 °C 10.0 °C 992.1 hPa WSW 53.6 km/h 66.3 km/h 91% 0.0 mm
06:57 11.1 °C 9.0 °C 992.1 hPa WSW 39.3 km/h 64.4 km/h 90% 0.0 mm
07:02 11.2 °C 10.0 °C 992.1 hPa WSW 51.8 km/h 64.0 km/h 90% 0.0 mm
07:07 11.3 °C 9.0 °C 992.1 hPa West 55.3 km/h 64.0 km/h 88% 0.0 mm
07:12 11.4 °C 9.0 °C 992.1 hPa WSW 53.6 km/h 66.9 km/h 86% 0.0 mm
07:17 11.5 °C 9.0 °C 992.1 hPa West 48.6 km/h 66.9 km/h 85% 0.0 mm
07:22 11.6 °C 9.0 °C 992.1 hPa WNW 39.3 km/h 62.6 km/h 82% 0.0 mm
07:27 11.7 °C 8.0 °C 993.1 hPa WSW 42.2 km/h 91.4 km/h 79% 0.0 mm
07:32 11.8 °C 8.0 °C 993.1 hPa WSW 65.8 km/h 91.4 km/h 76% 0.0 mm
07:37 11.8 °C 8.0 °C 993.1 hPa WSW 50.0 km/h 83.2 km/h 77% 0.0 mm
07:42 11.8 °C 8.0 °C 993.1 hPa West 52.9 km/h 77.7 km/h 76% 0.0 mm
07:47 11.8 °C 8.0 °C 993.1 hPa West 62.3 km/h 77.7 km/h 76% 0.0 mm
07:52 11.7 °C 7.0 °C 993.1 hPa West 66.9 km/h 80.3 km/h 74% 0.0 mm
07:57 11.7 °C 7.0 °C 993.1 hPa West 44.2 km/h 80.3 km/h 73% 0.0 mm
08:02 11.6 °C 7.0 °C 993.1 hPa West 57.6 km/h 83.8 km/h 73% 0.0 mm
08:07 11.5 °C 7.0 °C 993.1 hPa SW 43.9 km/h 83.8 km/h 72% 0.0 mm
08:12 11.5 °C 7.0 °C 994.1 hPa West 56.5 km/h 78.8 km/h 72% 0.0 mm
08:17 11.4 °C 7.0 °C 994.1 hPa West 53.6 km/h 78.8 km/h 72% 0.0 mm
08:22 11.2 °C 7.0 °C 994.1 hPa West 57.3 km/h 73.9 km/h 72% 0.0 mm
08:27 11.1 °C 6.0 °C 994.1 hPa West 57.3 km/h 57.6 km/h 70% 0.0 mm
08:32 11.0 °C 6.0 °C 994.1 hPa West 46.0 km/h 64.4 km/h 70% 0.0 mm
08:37 10.9 °C 6.0 °C 994.1 hPa West 41.0 km/h 64.4 km/h 71% 0.0 mm
08:42 10.8 °C 6.0 °C 995.1 hPa West 28.0 km/h 63.4 km/h 72% 0.0 mm
08:47 10.7 °C 6.0 °C 995.1 hPa SW 42.5 km/h 55.0 km/h 70% 0.0 mm
08:52 10.6 °C 6.0 °C 995.1 hPa West 45.7 km/h 52.9 km/h 70% 0.0 mm
08:57 10.6 °C 5.0 °C 996.2 hPa West 35.6 km/h 51.8 km/h 69% 0.0 mm
09:02 10.3 °C 5.0 °C 996.2 hPa WSW 21.2 km/h 51.8 km/h 68% 0.0 mm
09:07 10.2 °C 5.0 °C 996.2 hPa West 55.0 km/h 55.0 km/h 67% 0.0 mm
09:12 10.1 °C 4.0 °C 996.8 hPa SW 35.2 km/h 56.5 km/h 64% 0.0 mm
09:18 9.9 °C 3.0 °C 996.8 hPa West 23.3 km/h 56.5 km/h 63% 0.0 mm
09:23 9.9 °C 3.0 °C 996.8 hPa West 33.8 km/h 52.1 km/h 62% 0.0 mm
09:28 9.8 °C 3.0 °C 996.8 hPa West 24.5 km/h 57.6 km/h 61% 0.0 mm
09:33 9.8 °C 3.0 °C 996.8 hPa WNW 38.9 km/h 57.6 km/h 62% 0.0 mm
09:38 9.7 °C 3.0 °C 996.8 hPa West 28.5 km/h 48.6 km/h 63% 0.0 mm
09:43 9.6 °C 3.0 °C 996.8 hPa West 37.0 km/h 48.6 km/h 62% 0.0 mm
09:48 9.7 °C 3.0 °C 996.8 hPa WNW 37.8 km/h 52.9 km/h 62% 0.0 mm
09:53 9.6 °C 3.0 °C 996.8 hPa WSW 37.5 km/h 52.9 km/h 63% 0.0 mm
09:58 9.5 °C 3.0 °C 997.9 hPa South 25.3 km/h 42.2 km/h 64% 0.0 mm
10:03 9.6 °C 3.0 °C 997.9 hPa West 41.4 km/h 48.6 km/h 63% 0.0 mm
10:08 9.6 °C 3.0 °C 997.9 hPa West 21.6 km/h 48.6 km/h 64% 0.0 mm
10:13 9.6 °C 4.0 °C 998.9 hPa West 34.3 km/h 47.1 km/h 65% 0.0 mm
10:18 9.7 °C 3.0 °C 998.9 hPa WSW 24.5 km/h 42.2 km/h 64% 0.0 mm
10:23 9.7 °C 3.0 °C 998.9 hPa WSW 29.9 km/h 40.4 km/h 64% 0.0 mm
10:28 9.7 °C 4.0 °C 998.9 hPa West 17.7 km/h 40.7 km/h 65% 0.0 mm
10:33 9.7 °C 4.0 °C 998.9 hPa NNE 27.0 km/h 40.7 km/h 66% 0.0 mm
10:38 9.8 °C 4.0 °C 998.9 hPa NW 14.0 km/h 36.0 km/h 65% 0.0 mm
10:43 9.8 °C 3.0 °C 999.9 hPa SSW 15.8 km/h 27.0 km/h 64% 0.0 mm
10:48 9.8 °C 3.0 °C 999.9 hPa West 17.7 km/h 32.3 km/h 63% 0.0 mm
10:53 9.8 °C 3.0 °C 999.9 hPa WNW 23.3 km/h 32.3 km/h 62% 0.0 mm
10:58 9.8 °C 3.0 °C 999.9 hPa WSW 17.2 km/h 38.5 km/h 61% 0.0 mm
11:03 9.9 °C 3.0 °C 999.9 hPa WSW 20.9 km/h 38.5 km/h 59% 0.0 mm
11:08 9.7 °C 3.0 °C 999.9 hPa WNW 19.8 km/h 25.6 km/h 61% 0.0 mm
11:13 9.7 °C 3.0 °C 1000.9 hPa WNW 16.9 km/h 25.6 km/h 61% 0.0 mm
11:18 9.7 °C 3.0 °C 1000.9 hPa WSW 15.8 km/h 24.8 km/h 61% 0.0 mm
11:23 9.6 °C 3.0 °C 1000.9 hPa WNW 14.8 km/h 25.9 km/h 60% 0.0 mm
11:28 9.6 °C 2.0 °C 1000.9 hPa West 9.0 km/h 33.5 km/h 59% 0.0 mm
11:33 9.6 °C 2.0 °C 1000.9 hPa North 17.7 km/h 33.5 km/h 58% 0.0 mm
11:38 9.5 °C 2.0 °C 1000.9 hPa West 6.4 km/h 32.3 km/h 59% 0.0 mm
11:43 9.5 °C 2.0 °C 1000.9 hPa WSW 16.6 km/h 29.9 km/h 58% 0.0 mm
11:49 9.4 °C 2.0 °C 1000.9 hPa WSW 12.6 km/h 37.0 km/h 58% 0.0 mm
11:54 9.4 °C 1.0 °C 1000.9 hPa WNW 20.9 km/h 37.0 km/h 57% 0.0 mm
11:59 9.4 °C 2.0 °C 1000.9 hPa West 16.3 km/h 36.0 km/h 58% 0.0 mm
12:04 9.4 °C 2.0 °C 1000.9 hPa West 15.4 km/h 36.0 km/h 59% 0.0 mm
12:09 9.4 °C 2.0 °C 1000.9 hPa West 13.7 km/h 28.0 km/h 59% 0.0 mm
12:14 9.3 °C 2.0 °C 1001.9 hPa West 5.0 km/h 27.0 km/h 60% 0.0 mm
12:19 9.3 °C 2.0 °C 1001.9 hPa West 8.7 km/h 28.5 km/h 60% 0.0 mm
12:24 9.2 °C 2.0 °C 1001.9 hPa WNW 19.8 km/h 28.5 km/h 60% 0.0 mm
12:29 9.2 °C 2.0 °C 1001.9 hPa North 21.2 km/h 23.0 km/h 61% 0.0 mm
12:34 9.3 °C 2.0 °C 1001.9 hPa West 10.8 km/h 24.8 km/h 61% 0.0 mm
12:39 9.3 °C 2.0 °C 1001.9 hPa South 9.0 km/h 32.0 km/h 61% 0.0 mm
12:44 9.4 °C 2.0 °C 1001.9 hPa WNW 17.7 km/h 32.0 km/h 59% 0.0 mm
12:49 9.5 °C 2.0 °C 1001.9 hPa WSW 13.7 km/h 36.7 km/h 59% 0.0 mm
12:54 9.9 °C 3.0 °C 1001.9 hPa WNW 9.3 km/h 36.7 km/h 60% 0.0 mm
12:59 9.8 °C 2.0 °C 1001.9 hPa WSW 17.2 km/h 28.0 km/h 58% 0.0 mm
13:04 9.9 °C 2.0 °C 1001.9 hPa West 11.9 km/h 28.5 km/h 57% 0.0 mm
13:09 9.5 °C 2.0 °C 1001.9 hPa North 21.2 km/h 28.5 km/h 58% 0.0 mm
13:14 9.6 °C 3.0 °C 1001.9 hPa WNW 11.9 km/h 26.7 km/h 60% 0.0 mm
13:19 9.8 °C 3.0 °C 1001.9 hPa WNW 15.1 km/h 24.5 km/h 61% 0.0 mm
13:24 9.7 °C 2.0 °C 1001.9 hPa WNW 6.4 km/h 24.5 km/h 58% 0.0 mm
13:29 9.7 °C 3.0 °C 1001.9 hPa WNW 22.4 km/h 24.5 km/h 60% 0.0 mm
13:34 9.7 °C 3.0 °C 1001.9 hPa WNW 16.3 km/h 24.8 km/h 60% 0.0 mm
13:39 9.8 °C 2.0 °C 1001.9 hPa NNW 12.6 km/h 25.3 km/h 59% 0.0 mm
13:44 10.1 °C 3.0 °C 1001.9 hPa WNW 15.8 km/h 25.3 km/h 60% 0.0 mm
13:49 10.2 °C 3.0 °C 1001.9 hPa WSW 17.2 km/h 23.0 km/h 59% 0.0 mm
13:54 10.5 °C 3.0 °C 1001.9 hPa NW 11.9 km/h 23.0 km/h 61% 0.0 mm
13:59 10.4 °C 3.0 °C 1001.9 hPa West 16.9 km/h 27.7 km/h 59% 0.0 mm
14:05 10.6 °C 3.0 °C 1001.9 hPa West 10.1 km/h 27.7 km/h 59% 0.0 mm
14:10 10.4 °C 3.0 °C 1001.9 hPa West 28.5 km/h 34.6 km/h 58% 0.0 mm
14:15 10.2 °C 3.0 °C 1001.9 hPa West 28.0 km/h 34.6 km/h 59% 0.0 mm
14:20 10.0 °C 2.0 °C 1001.9 hPa West 17.2 km/h 36.4 km/h 58% 0.0 mm
14:25 9.9 °C 3.0 °C 1001.9 hPa West 14.0 km/h 36.4 km/h 59% 0.0 mm
14:30 9.9 °C 3.0 °C 1001.9 hPa NNW 20.6 km/h 27.7 km/h 59% 0.0 mm
14:35 9.9 °C 3.0 °C 1001.9 hPa West 14.0 km/h 24.8 km/h 59% 0.0 mm
14:40 9.9 °C 3.0 °C 1001.9 hPa West 9.3 km/h 24.8 km/h 59% 0.0 mm
14:45 9.9 °C 3.0 °C 1001.9 hPa WSW 17.2 km/h 20.6 km/h 59% 0.0 mm
14:50 9.9 °C 3.0 °C 1001.9 hPa West 12.6 km/h 24.5 km/h 59% 0.0 mm
14:55 9.9 °C 3.0 °C 1001.9 hPa WSW 22.4 km/h 24.5 km/h 59% 0.0 mm
15:00 9.9 °C 3.0 °C 1001.9 hPa WSW 12.6 km/h 28.5 km/h 59% 0.0 mm
15:05 9.9 °C 3.0 °C 1001.9 hPa West 11.9 km/h 28.5 km/h 59% 0.0 mm
15:10 9.9 °C 3.0 °C 1001.9 hPa West 9.3 km/h 20.9 km/h 59% 0.0 mm
15:15 8.9 °C 3.0 °C 1001.9 hPa West 9.7 km/h 20.9 km/h 64% 0.0 mm
15:20 8.9 °C 3.0 °C 1001.9 hPa West 8.7 km/h 16.6 km/h 64% 0.0 mm
15:25 8.9 °C 3.0 °C 1001.9 hPa WSW 11.9 km/h 19.1 km/h 64% 0.0 mm
15:30 8.9 °C 3.0 °C 1001.9 hPa West 24.5 km/h 25.6 km/h 67% 0.0 mm
15:36 8.9 °C 3.0 °C 1001.9 hPa West 14.0 km/h 25.6 km/h 67% 0.0 mm
15:41 8.7 °C 3.0 °C 1001.9 hPa WSW 19.5 km/h 24.5 km/h 67% 0.0 mm
15:46 8.7 °C 3.0 °C 1001.9 hPa West 14.0 km/h 24.8 km/h 67% 0.0 mm
15:51 8.7 °C 3.0 °C 1001.9 hPa WNW 9.3 km/h 24.8 km/h 67% 0.0 mm
15:56 8.5 °C 3.0 °C 1001.9 hPa WSW 20.9 km/h 20.9 km/h 68% 0.0 mm
16:01 8.5 °C 3.0 °C 1001.9 hPa West 5.8 km/h 20.9 km/h 68% 0.0 mm
16:06 8.5 °C 3.0 °C 1001.9 hPa West 14.0 km/h 19.1 km/h 68% 0.0 mm
16:11 8.5 °C 3.0 °C 1001.9 hPa West 3.2 km/h 14.0 km/h 68% 0.0 mm
16:16 8.5 °C 3.0 °C 1001.9 hPa Calm   13.7 km/h 68% 0.0 mm
16:21 8.2 °C 3.0 °C 1001.9 hPa West 4.3 km/h 11.6 km/h 71% 0.0 mm
16:26 8.2 °C 3.0 °C 1001.9 hPa West 4.7 km/h 12.2 km/h 71% 0.0 mm
16:31 8.2 °C 3.0 °C 1001.9 hPa WSW 8.7 km/h 12.2 km/h 71% 0.0 mm
16:36 7.9 °C 3.0 °C 1001.9 hPa West 6.4 km/h 12.2 km/h 73% 0.0 mm
16:41 7.9 °C 3.0 °C 1001.9 hPa West 4.3 km/h 11.9 km/h 73% 0.0 mm
16:46 7.7 °C 3.0 °C 1001.9 hPa Calm   11.9 km/h 73% 0.0 mm
16:51 7.5 °C 3.0 °C 1001.9 hPa West 9.3 km/h 9.3 km/h 74% 0.0 mm
16:56 7.3 °C 3.0 °C 1001.9 hPa West 6.1 km/h 9.7 km/h 74% 0.0 mm
17:02 7.1 °C 3.0 °C 1001.9 hPa Calm   9.7 km/h 74% 0.0 mm
17:07 7.0 °C 3.0 °C 1001.9 hPa West 4.0 km/h 13.7 km/h 75% 0.0 mm
17:12 7.0 °C 3.0 °C 1001.9 hPa WSW 4.3 km/h 13.7 km/h 75% 0.0 mm
17:17 7.0 °C 3.0 °C 1001.9 hPa West 7.9 km/h 10.5 km/h 75% 0.0 mm
17:22 7.1 °C 3.0 °C 1001.9 hPa West 7.6 km/h 11.6 km/h 77% 0.0 mm
17:27 7.1 °C 3.0 °C 1001.9 hPa West 5.8 km/h 11.6 km/h 77% 0.0 mm
17:32 7.0 °C 3.0 °C 1001.9 hPa WSW 10.5 km/h 11.6 km/h 77% 0.0 mm
17:37 0.0 °C 3.0 °C 0.0 hPa Calm     0% 0.0 mm
17:42 0.0 °C 3.0 °C 1001.9 hPa Calm     0% 0.0 mm
17:47 0.0 °C 3.0 °C 1001.9 hPa WSW 7.9 km/h 9.0 km/h 0% 0.0 mm
17:52 6.6 °C 4.0 °C 1001.9 hPa West 9.0 km/h 10.5 km/h 80% 0.0 mm
17:57 6.6 °C 4.0 °C 1001.9 hPa WSW 10.5 km/h 12.6 km/h 81% 0.0 mm
18:02 6.6 °C 4.0 °C 1001.9 hPa WSW 9.3 km/h 12.6 km/h 82% 0.0 mm
18:08 6.5 °C 4.0 °C 1001.9 hPa WSW 7.9 km/h 10.5 km/h 83% 0.0 mm
18:12 6.5 °C 4.0 °C 1001.9 hPa WSW 8.7 km/h 10.5 km/h 83% 0.0 mm
18:18 6.5 °C 4.0 °C 1001.9 hPa WSW 10.1 km/h 12.6 km/h 83% 0.0 mm
18:23 6.5 °C 4.0 °C 1001.9 hPa WSW 8.7 km/h 12.6 km/h 83% 0.0 mm
18:28 6.5 °C 4.0 °C 1001.9 hPa WSW 9.7 km/h 10.5 km/h 83% 0.0 mm
18:33 6.5 °C 4.0 °C 1001.9 hPa WSW 10.1 km/h 10.5 km/h 83% 0.0 mm
18:38 6.6 °C 5.0 °C 1001.9 hPa WSW 9.3 km/h 11.6 km/h 85% 0.0 mm
18:43 6.7 °C 5.0 °C 1001.9 hPa WSW 7.9 km/h 12.6 km/h 86% 0.0 mm
18:48 6.8 °C 5.0 °C 1001.9 hPa WSW 14.0 km/h 14.0 km/h 86% 0.0 mm
18:58 7.0 °C 5.0 °C 1001.9 hPa West 10.1 km/h 14.0 km/h 87% 0.0 mm
19:03 7.0 °C 5.0 °C 1001.9 hPa WSW 12.6 km/h 14.0 km/h 86% 0.0 mm
19:08 7.0 °C 5.0 °C 1001.9 hPa WSW 10.1 km/h 15.8 km/h 86% 0.0 mm
19:13 7.0 °C 5.0 °C 1001.9 hPa West 11.6 km/h 15.8 km/h 86% 0.0 mm
19:18 7.0 °C 5.0 °C 1001.9 hPa WSW 12.6 km/h 15.8 km/h 86% 0.0 mm
19:23 7.0 °C 5.0 °C 1001.9 hPa WSW 12.2 km/h 14.3 km/h 86% 0.0 mm
19:28 7.0 °C 5.0 °C 1001.9 hPa WSW 10.1 km/h 14.0 km/h 86% 0.0 mm
19:33 6.6 °C 5.0 °C 1001.9 hPa WSW 10.5 km/h 14.0 km/h 87% 0.0 mm
19:38 6.5 °C 5.0 °C 1001.9 hPa WSW 10.1 km/h 15.8 km/h 87% 0.0 mm
19:43 6.4 °C 5.0 °C 1001.9 hPa WSW 10.5 km/h 15.8 km/h 87% 0.0 mm
19:48 6.3 °C 5.0 °C 1001.9 hPa WSW 10.1 km/h 16.6 km/h 88% 0.0 mm
19:53 6.4 °C 5.0 °C 1001.9 hPa West 16.3 km/h 17.7 km/h 89% 0.0 mm
19:58 6.4 °C 5.0 °C 1001.9 hPa WSW 9.7 km/h 17.7 km/h 90% 0.0 mm
20:03 6.4 °C 5.0 °C 1001.9 hPa WSW 6.9 km/h 17.7 km/h 90% 0.0 mm
20:08 6.4 °C 5.0 °C 1001.9 hPa West 9.7 km/h 13.7 km/h 90% 0.0 mm
20:13 6.4 °C 5.0 °C 1001.9 hPa West 20.9 km/h 20.9 km/h 91% 0.0 mm
20:19 6.4 °C 5.0 °C 1001.9 hPa WSW 11.6 km/h 20.9 km/h 91% 0.0 mm
20:24 6.5 °C 6.0 °C 1001.9 hPa West 12.2 km/h 19.5 km/h 91% 0.0 mm
20:29 6.5 °C 5.0 °C 1001.9 hPa SW 11.9 km/h 19.5 km/h 90% 0.0 mm
20:34 6.5 °C 5.0 °C 1001.9 hPa West 12.2 km/h 16.9 km/h 89% 0.0 mm
20:39 6.4 °C 5.0 °C 1001.9 hPa West 14.3 km/h 16.9 km/h 88% 0.0 mm
20:44 6.4 °C 5.0 °C 1002.9 hPa West 17.2 km/h 21.2 km/h 88% 0.0 mm
20:49 6.4 °C 5.0 °C 1002.9 hPa West 13.7 km/h 21.2 km/h 87% 0.0 mm
20:54 6.4 °C 5.0 °C 1002.9 hPa WNW 6.1 km/h 19.8 km/h 87% 0.0 mm
20:59 6.5 °C 5.0 °C 1002.9 hPa WSW 9.7 km/h 19.8 km/h 88% 0.0 mm
21:04 6.5 °C 5.0 °C 1002.9 hPa West 13.7 km/h 19.8 km/h 87% 0.0 mm
21:09 6.5 °C 5.0 °C 1002.9 hPa West 6.1 km/h 19.8 km/h 87% 0.0 mm
21:14 6.4 °C 5.0 °C 1002.9 hPa West 9.7 km/h 14.0 km/h 87% 0.0 mm
21:19 6.3 °C 5.0 °C 1002.9 hPa West 6.9 km/h 13.7 km/h 87% 0.0 mm
21:24 6.1 °C 4.0 °C 1002.9 hPa West 9.7 km/h 13.7 km/h 86% 0.0 mm
21:29 5.9 °C 4.0 °C 1002.9 hPa West 3.5 km/h 10.1 km/h 87% 0.0 mm
21:34 5.8 °C 4.0 °C 1002.9 hPa Calm   6.9 km/h 87% 0.0 mm
21:39 5.8 °C 4.0 °C 1002.9 hPa WNW 9.3 km/h 10.1 km/h 87% 0.0 mm
21:45 5.8 °C 4.0 °C 1002.9 hPa Calm   10.1 km/h 87% 0.0 mm
21:50 5.8 °C 4.0 °C 1002.9 hPa NNW 5.5 km/h 12.2 km/h 87% 0.0 mm
21:55 5.8 °C 4.0 °C 1002.9 hPa WNW 2.1 km/h 13.0 km/h 87% 0.0 mm
22:00 5.7 °C 4.0 °C 1002.9 hPa Calm   13.0 km/h 87% 0.0 mm
22:05 5.6 °C 4.0 °C 1002.9 hPa Calm   10.1 km/h 87% 0.0 mm
22:10 5.5 °C 4.0 °C 1002.9 hPa West 4.3 km/h 10.1 km/h 87% 0.0 mm
22:15 5.4 °C 4.0 °C 1002.9 hPa West 3.5 km/h 10.1 km/h 87% 0.0 mm
22:20 5.3 °C 4.0 °C 1002.9 hPa West 2.6 km/h 13.0 km/h 87% 0.0 mm
22:25 5.2 °C 3.0 °C 1002.9 hPa WNW 3.2 km/h 13.0 km/h 87% 0.0 mm
22:30 5.2 °C 3.0 °C 1002.9 hPa West 12.6 km/h 12.6 km/h 87% 0.0 mm
22:35 5.1 °C 3.0 °C 1002.9 hPa WNW 7.9 km/h 12.6 km/h 88% 0.0 mm
22:40 5.0 °C 3.0 °C 1002.9 hPa West 9.3 km/h 12.2 km/h 88% 0.0 mm
22:45 4.9 °C 3.0 °C 1002.9 hPa West 6.4 km/h 12.6 km/h 88% 0.0 mm
22:51 4.8 °C 3.0 °C 1002.9 hPa WSW 6.9 km/h 12.6 km/h 89% 0.0 mm
22:56 4.8 °C 3.0 °C 1002.9 hPa West 4.7 km/h 10.5 km/h 89% 0.0 mm
23:01 4.8 °C 3.0 °C 1003.9 hPa West 4.0 km/h 13.0 km/h 89% 0.0 mm
23:06 4.8 °C 3.0 °C 1003.9 hPa West 12.2 km/h 14.8 km/h 90% 0.0 mm
23:11 4.7 °C 3.0 °C 1003.9 hPa West 8.7 km/h 14.8 km/h 90% 0.0 mm
23:16 4.7 °C 3.0 °C 1003.9 hPa WSW 9.3 km/h 11.9 km/h 90% 0.0 mm
23:21 4.6 °C 3.0 °C 1003.9 hPa West 13.0 km/h 13.0 km/h 90% 0.0 mm
23:26 4.5 °C 3.0 °C 1003.9 hPa WSW 11.1 km/h 13.0 km/h 90% 0.0 mm
23:31 4.5 °C 3.0 °C 1005.0 hPa West 9.7 km/h 13.0 km/h 91% 0.0 mm
23:36 4.5 °C 3.0 °C 1005.0 hPa WSW 11.6 km/h 13.7 km/h 92% 0.0 mm
23:41 4.5 °C 3.0 °C 1005.0 hPa West 7.9 km/h 13.7 km/h 92% 0.0 mm
23:46 4.6 °C 4.0 °C 1005.0 hPa West 9.3 km/h 13.0 km/h 93% 0.0 mm
23:51 4.5 °C 4.0 °C 1005.0 hPa West 9.7 km/h 13.0 km/h 93% 0.0 mm
23:56 4.5 °C 4.0 °C 1005.0 hPa West 10.1 km/h 13.7 km/h 93% 0.0 mm
Données Historique de Météo Turbie

Mise a jour : 24/05/2018 23:20:13
Généré par Cumulus 1.9.4 (1099)